Mildenhall RAF, United Kingdom

3:58 PM GMT on January 20, 2018 (GMT +0000)
Mildenhall Air Base

Weather History for EGUN - October, 2012

Change the Weather History Date:

Friday, October 19, 2012

  Actual Average Record
Temperature  
Mean Temperature 52 °F -  
Max Temperature 55 °F - - ()
Min Temperature 50 °F - - ()
Degree Days  
Heating Degree Days 12    
Growing Degree Days 2 (Base 50)    
Moisture  
Dew Point 53 °F    
Average Humidity 100    
Maximum Humidity 100    
Minimum Humidity 98    
Precipitation  
Precipitation 0.34 in - - ()
Sea Level Pressure  
Sea Level Pressure 29.76 in    
Wind  
Wind Speed 3 mph ()    
Max Wind Speed 8 mph    
Max Gust Speed -    
Visibility 4.3 miles    
Events Fog , Rain    
T = Trace of Precipitation, MM = Missing Value Source: Averaged Metar Reports

Daily Weather History Graph

Daily Weather History Graph

Search for Another Location

Airport or City:

Trip Planner

Search our weather history database for the weather conditions in past years. The results will help you decide how hot, cold, wet, or windy it might be!

Date:

Astronomy

Oct. 19, 2012 Rise Set
Actual Time 7:30 AM BST 5:54 PM BST
Civil Twilight 6:56 AM BST 6:28 PM BST
Nautical Twilight 6:16 AM BST 7:08 PM BST
Astronomical Twilight 5:37 AM BST 7:47 PM BST
Moon 12:27 PM BST (10/19) 8:48 PM BST (10/19)
Length of Visible Light 11h 32m
Length of Day
10h 23m
Waxing Crescent, 21% of the Moon is Illuminated
Oct 19
Waxing Crescent
Oct 22
First Quarter
Oct 29
Full
Nov 7
Last Quarter
Nov 13
New

Hourly Weather History & Observations

Time (BST) Temp. Dew Point Humidity Pressure Visibility Wind Dir Wind Speed Gust Speed Precip Events Conditions
12:58 AM 55.8 °F 55.2 °F 98% 29.73 in 6.2 mi South 5.8 mph - N/A   Mostly Cloudy
1:58 AM 55.2 °F 55.2 °F 100% 29.73 in 6.2 mi South 4.6 mph - N/A   Overcast
2:58 AM 54.3 °F 54.3 °F 100% 29.74 in 6.2 mi SSE 4.6 mph - N/A   Overcast
3:32 AM 53.6 °F 53.6 °F 100% 29.73 in 6.2 mi SE 4.6 mph - N/A Rain Light Rain
3:58 AM 54.0 °F 54.0 °F 100% 29.73 in 6.2 mi SE 5.8 mph - 0.00 in Rain Light Rain
4:11 AM 53.6 °F 53.6 °F 100% 29.73 in 6.2 mi SSE 4.6 mph - N/A   Mostly Cloudy
4:58 AM 52.3 °F 52.3 °F 100% 29.73 in 6.2 mi ESE 2.3 mph - 0.00 in   Partly Cloudy
5:01 AM 51.8 °F 51.8 °F 100% 29.72 in 3.1 mi East 2.3 mph - N/A   Clear
5:02 AM 51.8 °F 51.8 °F 100% 29.72 in 2.5 mi East 1.2 mph - N/A   Clear
5:03 AM 51.8 °F 51.8 °F 100% 29.72 in - East 1.2 mph - N/A   Clear
5:06 AM 51.8 °F 51.8 °F 100% 29.73 in 1.2 mi Calm Calm - N/A   Partly Cloudy
5:08 AM 51.8 °F 51.8 °F 100% 29.73 in 1.0 mi Variable 1.2 mph - N/A   Partly Cloudy
5:09 AM 51.8 °F 51.8 °F 100% 29.74 in 1.0 mi SSE 1.2 mph - N/A   Partly Cloudy
5:10 AM 51.8 °F 51.8 °F 100% 29.74 in 0.7 mi SSE 1.2 mph - N/A   Partly Cloudy
5:12 AM 51.8 °F 51.8 °F 100% 29.74 in 0.7 mi SSE 1.2 mph - N/A   Scattered Clouds
5:18 AM 50.0 °F 50.0 °F 100% 29.74 in 0.7 mi South 1.2 mph - N/A   Mostly Cloudy
5:19 AM 50.0 °F 50.0 °F 100% 29.73 in 1.0 mi Calm Calm - N/A   Mostly Cloudy
5:20 AM 50.0 °F 50.0 °F 100% 29.73 in 1.0 mi Calm Calm - N/A   Mostly Cloudy
5:21 AM 50.0 °F 50.0 °F 100% 29.73 in 1.2 mi Calm Calm - N/A   Mostly Cloudy
5:22 AM 50.0 °F 50.0 °F 100% 29.73 in 1.5 mi Calm Calm - N/A   Mostly Cloudy
5:24 AM 51.8 °F 51.8 °F 100% 29.74 in 1.7 mi SSW 2.3 mph - N/A   Mostly Cloudy
5:25 AM 51.8 °F 51.8 °F 100% 29.74 in - SSW 2.3 mph - N/A   Mostly Cloudy
5:26 AM 51.8 °F 51.8 °F 100% 29.74 in 2.5 mi SSW 2.3 mph - N/A   Mostly Cloudy
5:32 AM 51.8 °F 51.8 °F 100% 29.74 in 3.1 mi WSW 1.2 mph - N/A   Mostly Cloudy
5:53 AM 51.8 °F 51.8 °F 100% 29.75 in 3.7 mi South 2.3 mph - N/A Rain Light Rain
5:58 AM 51.4 °F 51.4 °F 100% 29.76 in 3.7 mi SSE 2.3 mph - 0.00 in Rain Light Rain
6:07 AM 51.8 °F 51.8 °F 100% 29.75 in 5.0 mi South 4.6 mph - N/A Rain Light Rain
6:22 AM 51.8 °F 51.8 °F 100% 29.74 in 6.2 mi SSE 3.5 mph - N/A   Clear
6:30 AM 51.8 °F 51.8 °F 100% 29.74 in 6.2 mi SE 2.3 mph - N/A Rain Light Rain
6:45 AM 51.8 °F 51.8 °F 100% 29.74 in 5.6 mi SE 1.2 mph - N/A   Partly Cloudy
6:54 AM 51.8 °F 51.8 °F 100% 29.74 in 5.0 mi SSE 2.3 mph - N/A   Partly Cloudy
6:55 AM 51.8 °F 51.8 °F 100% 29.74 in 5.0 mi SSE 2.3 mph - N/A   Partly Cloudy
6:58 AM 52.2 °F 52.2 °F 100% 29.75 in 5.0 mi SSE 2.3 mph - 0.00 in   Partly Cloudy
7:11 AM 51.8 °F 51.8 °F 100% 29.75 in 5.0 mi Calm Calm - N/A   Partly Cloudy
7:12 AM 51.8 °F 51.8 °F 100% 29.75 in 5.0 mi Calm Calm - N/A   Partly Cloudy
7:21 AM 51.8 °F 51.8 °F 100% 29.75 in 5.0 mi SE 1.2 mph - N/A   Partly Cloudy
7:25 AM 51.8 °F 51.8 °F 100% 29.75 in 3.7 mi ESE 1.2 mph - N/A   Partly Cloudy
7:27 AM 51.8 °F 51.8 °F 100% 29.75 in - ESE 2.3 mph - N/A   Partly Cloudy
7:28 AM 51.8 °F 51.8 °F 100% 29.75 in 1.2 mi ESE 2.3 mph - N/A   Partly Cloudy
7:29 AM 51.8 °F 51.8 °F 100% 29.75 in 1.0 mi ESE 2.3 mph - N/A   Partly Cloudy
7:30 AM 51.8 °F 51.8 °F 100% 29.75 in 0.7 mi ESE 2.3 mph - N/A   Partly Cloudy
7:31 AM 51.8 °F 51.8 °F 100% 29.75 in 0.5 mi ESE 3.5 mph - N/A Fog Fog
7:35 AM 51.8 °F 51.8 °F 100% 29.75 in 0.2 mi ESE 4.6 mph - N/A Fog Fog
7:38 AM 51.8 °F 51.8 °F 100% 29.75 in 0.5 mi ESE 4.6 mph - N/A Fog Fog
7:39 AM 51.8 °F 51.8 °F 100% 29.75 in 0.5 mi SE 4.6 mph - N/A Fog Fog
7:41 AM 50.0 °F 50.0 °F 100% 29.75 in 0.5 mi SE 4.6 mph - N/A Fog Fog
7:53 AM 51.8 °F 51.8 °F 100% 29.75 in 1.0 mi ESE 4.6 mph - N/A   Partly Cloudy
7:54 AM 51.8 °F 51.8 °F 100% 29.75 in 1.2 mi ESE 3.5 mph - N/A   Partly Cloudy
7:56 AM 51.8 °F 51.8 °F 100% 29.75 in 1.5 mi ESE 3.5 mph - N/A   Partly Cloudy
7:58 AM 51.4 °F 51.4 °F 100% 29.76 in - ESE 4.6 mph - N/A   Scattered Clouds
8:06 AM 51.8 °F 51.8 °F 100% 29.75 in 3.1 mi ESE 3.5 mph - N/A   Mostly Cloudy
8:58 AM 53.2 °F 53.2 °F 100% 29.77 in 6.2 mi NNE 1.2 mph - N/A   Overcast
9:20 AM 53.6 °F 53.6 °F 100% 29.77 in 6.2 mi ESE 2.3 mph - N/A   Mostly Cloudy
9:55 AM 53.6 °F 53.6 °F 100% 29.77 in 6.2 mi Calm Calm - N/A   Mostly Cloudy
9:58 AM 54.3 °F 54.3 °F 100% 29.78 in 6.2 mi Calm Calm - N/A   Mostly Cloudy
10:15 AM 53.6 °F 53.6 °F 100% 29.78 in 6.2 mi South 2.3 mph - N/A   Overcast
10:30 AM 53.6 °F 53.6 °F 100% 29.78 in 2.5 mi South 1.2 mph - N/A   Overcast
10:34 AM 53.6 °F 53.6 °F 100% 29.78 in 3.1 mi SSE 2.3 mph - N/A   Overcast
10:43 AM 53.6 °F 53.6 °F 100% 29.79 in 3.7 mi Variable 1.2 mph - N/A   Overcast
10:51 AM 55.4 °F 55.4 °F 100% 29.78 in 3.1 mi SE 2.3 mph - N/A   Overcast
10:58 AM 54.7 °F 54.7 °F 100% 29.80 in 3.7 mi South 2.3 mph - N/A   Overcast
11:01 AM 55.4 °F 55.4 °F 100% 29.79 in 6.2 mi South 2.3 mph - N/A   Overcast
11:13 AM 55.4 °F 55.4 °F 100% 29.79 in 6.2 mi South 2.3 mph - N/A   Overcast
11:22 AM 55.4 °F 55.4 °F 100% 29.79 in 6.2 mi South 1.2 mph - N/A   Overcast
11:32 AM 55.4 °F 55.4 °F 100% 29.79 in 6.2 mi ESE 1.2 mph - N/A Rain Light Rain
11:40 AM 55.4 °F 55.4 °F 100% 29.79 in 6.2 mi East 2.3 mph - N/A Rain Light Rain
11:41 AM 55.4 °F 55.4 °F 100% 29.79 in 6.2 mi East 1.2 mph - N/A Rain Light Rain
11:44 AM 55.4 °F 55.4 °F 100% 29.79 in 6.2 mi ESE 2.3 mph - N/A Rain Light Rain
11:45 AM 55.4 °F 55.4 °F 100% 29.79 in 6.2 mi ESE 2.3 mph - N/A Rain Light Rain
11:46 AM 55.4 °F 55.4 °F 100% 29.79 in 6.2 mi ESE 2.3 mph - N/A Rain Light Rain
11:47 AM 55.4 °F 55.4 °F 100% 29.79 in 6.2 mi ESE 2.3 mph - N/A Rain Light Rain
11:50 AM 55.4 °F 55.4 °F 100% 29.79 in 6.2 mi East 1.2 mph - N/A Rain Light Rain
11:58 AM 55.8 °F 55.8 °F 100% 29.80 in 6.2 mi ESE 2.3 mph - 0.00 in Rain Light Rain
12:10 PM 55.4 °F 55.4 °F 100% 29.79 in 6.2 mi SE 2.3 mph - N/A   Overcast
12:14 PM 55.4 °F 55.4 °F 100% 29.79 in 6.2 mi East 2.3 mph - N/A Rain Light Rain
12:17 PM 55.4 °F 55.4 °F 100% 29.79 in 6.2 mi ESE 1.2 mph - N/A Rain Light Rain
12:42 PM 55.4 °F 55.4 °F 100% 29.79 in 6.2 mi SE 2.3 mph - N/A Rain Light Rain
12:50 PM 55.4 °F 55.4 °F 100% 29.79 in 6.2 mi SE 3.5 mph - N/A   Overcast
12:58 PM 55.9 °F 55.9 °F 100% 29.79 in 6.2 mi ESE 2.3 mph - 0.01 in   Overcast
1:03 PM 55.4 °F 55.4 °F 100% 29.78 in 6.2 mi ESE 2.3 mph - N/A Rain Light Rain
1:42 PM 55.4 °F 55.4 °F 100% 29.77 in 6.2 mi ESE 3.5 mph - N/A Rain Light Rain
1:45 PM 55.4 °F 55.4 °F 100% 29.77 in 6.2 mi ESE 3.5 mph - N/A Rain Light Rain
1:51 PM 55.4 °F 55.4 °F 100% 29.77 in 6.2 mi ESE 4.6 mph - N/A Rain Light Rain
1:58 PM 55.4 °F 55.4 °F 100% 29.77 in 6.2 mi ESE 4.6 mph - 0.02 in Rain Light Rain
2:04 PM 55.4 °F 55.4 °F 100% 29.76 in 5.6 mi East 5.8 mph - N/A Rain Light Rain
2:23 PM 55.4 °F 55.4 °F 100% 29.77 in 6.2 mi ESE 6.9 mph - N/A   Overcast
2:58 PM 54.7 °F 54.7 °F 100% 29.78 in 6.2 mi East 3.5 mph - 0.02 in   Overcast
3:11 PM 53.6 °F 53.6 °F 100% 29.78 in 6.2 mi ESE 2.3 mph - N/A Rain Light Rain
3:17 PM 53.6 °F 53.6 °F 100% 29.77 in 5.6 mi East 2.3 mph - N/A Rain Light Rain
3:27 PM 53.6 °F 53.6 °F 100% 29.78 in 2.5 mi ESE 3.5 mph - N/A Rain Light Rain
3:35 PM 53.6 °F 53.6 °F 100% 29.78 in 3.1 mi SE 4.6 mph - N/A Rain Light Rain
3:58 PM 54.3 °F 54.3 °F 100% 29.78 in 3.1 mi ESE 3.5 mph - 0.03 in Rain Light Rain
4:01 PM 53.6 °F 53.6 °F 100% 29.77 in 2.5 mi East 3.5 mph - N/A Rain Light Rain
4:06 PM 53.6 °F 53.6 °F 100% 29.77 in 3.1 mi East 3.5 mph - N/A Rain Light Rain
4:16 PM 53.6 °F 53.6 °F 100% 29.77 in 6.2 mi ENE 2.3 mph - N/A Rain Light Rain
4:17 PM 53.6 °F 53.6 °F 100% 29.77 in 6.2 mi ENE 3.5 mph - N/A   Overcast
4:24 PM 53.6 °F 53.6 °F 100% 29.77 in 6.2 mi East 3.5 mph - N/A   Overcast
4:26 PM 53.6 °F 53.6 °F 100% 29.77 in 6.2 mi ENE 3.5 mph - N/A Rain Light Rain
4:32 PM 53.6 °F 53.6 °F 100% 29.77 in 6.2 mi ENE 4.6 mph - N/A Rain Light Rain
4:36 PM 53.6 °F 53.6 °F 100% 29.76 in 3.1 mi NE 4.6 mph - N/A Rain Light Rain
4:38 PM 53.6 °F 53.6 °F 100% 29.76 in 2.5 mi NE 3.5 mph - N/A Rain Light Rain
4:39 PM 53.6 °F 53.6 °F 100% 29.76 in - NE 3.5 mph - N/A Rain Light Rain
4:44 PM 53.6 °F 53.6 °F 100% 29.77 in - NE 3.5 mph - N/A Rain Light Rain
4:45 PM 53.6 °F 53.6 °F 100% 29.77 in - ENE 2.3 mph - N/A Rain Light Rain
4:48 PM 53.6 °F 53.6 °F 100% 29.78 in - NE 1.2 mph - N/A Rain Light Rain
4:54 PM 53.6 °F 53.6 °F 100% 29.78 in 1.7 mi NE 2.3 mph - N/A Rain Light Rain
4:57 PM 53.6 °F 53.6 °F 100% 29.78 in 1.5 mi NE 1.2 mph - N/A Rain Light Rain
4:58 PM 54.0 °F 54.0 °F 100% 29.79 in 1.5 mi NE 1.2 mph - 0.03 in Rain Light Rain
5:00 PM 53.6 °F 53.6 °F 100% 29.78 in 1.5 mi NE 2.3 mph - N/A Rain Light Rain
5:14 PM 53.6 °F 53.6 °F 100% 29.78 in 1.7 mi NE 5.8 mph - N/A Rain Rain
5:23 PM 53.6 °F 53.6 °F 100% 29.77 in - ENE 5.8 mph - N/A Rain Light Rain
5:28 PM 53.6 °F 53.6 °F 100% 29.77 in - NE 4.6 mph - N/A Rain Light Rain
5:31 PM 53.6 °F 53.6 °F 100% 29.77 in 2.5 mi NE 5.8 mph - N/A Rain Light Rain
5:38 PM 53.6 °F 53.6 °F 100% 29.77 in 3.1 mi NNE 4.6 mph - N/A Rain Light Rain
5:45 PM 53.6 °F 53.6 °F 100% 29.77 in 3.1 mi NNE 3.5 mph - N/A Rain Light Rain
5:52 PM 53.6 °F 53.6 °F 100% 29.77 in 3.1 mi NNE 4.6 mph - N/A Rain Light Rain
5:58 PM 53.4 °F 53.4 °F 100% 29.78 in 3.7 mi NNE 5.8 mph - 0.08 in Rain Light Rain
6:00 PM 53.6 °F 53.6 °F 100% 29.76 in 3.7 mi NNE 4.6 mph - N/A Rain Light Rain
6:01 PM 53.6 °F 53.6 °F 100% 29.76 in 3.7 mi NNE 4.6 mph - N/A Rain Light Rain
6:02 PM 53.6 °F 53.6 °F 100% 29.76 in 3.7 mi North 5.8 mph - N/A Rain Light Rain
6:09 PM 53.6 °F 53.6 °F 100% 29.76 in 5.0 mi North 4.6 mph - N/A Rain Light Rain
6:16 PM 53.6 °F 53.6 °F 100% 29.76 in 5.0 mi NNE 4.6 mph - N/A Rain Light Rain
6:58 PM 53.2 °F 53.2 °F 100% 29.78 in 3.1 mi NE 6.9 mph - 0.04 in Rain Light Rain
7:03 PM 53.6 °F 53.6 °F 100% 29.76 in 3.7 mi NE 6.9 mph - N/A Rain Light Rain
7:12 PM 53.6 °F 53.6 °F 100% 29.76 in 3.7 mi NE 5.8 mph - N/A Rain Light Rain
7:21 PM 53.6 °F 53.6 °F 100% 29.76 in 5.0 mi NE 5.8 mph - N/A Rain Light Rain
7:23 PM 53.6 °F 53.6 °F 100% 29.76 in 5.0 mi NNE 4.6 mph - N/A   Overcast
7:32 PM 53.6 °F 53.6 °F 100% 29.76 in 5.0 mi NNE 4.6 mph - N/A   Overcast
7:33 PM 53.6 °F 53.6 °F 100% 29.76 in 5.0 mi NNE 4.6 mph - N/A   Overcast
7:34 PM 53.6 °F 53.6 °F 100% 29.76 in 5.0 mi NNE 4.6 mph - N/A Rain Light Rain
7:58 PM 52.9 °F 52.9 °F 100% 29.78 in 3.1 mi North 4.6 mph - 0.03 in Rain Rain
8:08 PM 53.6 °F 53.6 °F 100% 29.76 in 2.5 mi North 4.6 mph - N/A Rain Rain
8:09 PM 53.6 °F 53.6 °F 100% 29.77 in 2.5 mi North 4.6 mph - N/A Rain Rain
8:13 PM 53.6 °F 53.6 °F 100% 29.77 in 3.1 mi North 4.6 mph - N/A Rain Rain
8:35 PM 51.8 °F 51.8 °F 100% 29.76 in 5.0 mi North 5.8 mph - N/A Rain Rain
8:43 PM 51.8 °F 51.8 °F 100% 29.77 in 5.0 mi North 4.6 mph - N/A Rain Light Rain
8:48 PM 51.8 °F 51.8 °F 100% 29.77 in 5.0 mi North 3.5 mph - N/A Rain Light Rain
8:50 PM 51.8 °F 51.8 °F 100% 29.77 in 5.0 mi North 4.6 mph - N/A Rain Light Rain
8:54 PM 53.6 °F 53.6 °F 100% 29.77 in 6.2 mi North 4.6 mph - N/A Rain Light Rain
8:57 PM 51.8 °F 51.8 °F 100% 29.76 in 6.2 mi NNW 3.5 mph - N/A Rain Light Rain
8:58 PM 51.8 °F 51.8 °F 100% 29.78 in 6.2 mi North 3.5 mph - 0.06 in Rain Light Rain
9:02 PM 51.8 °F 51.8 °F 100% 29.77 in 6.2 mi North 4.6 mph - N/A Rain Light Rain
9:17 PM 51.8 °F 51.8 °F 100% 29.77 in 5.6 mi North 4.6 mph - N/A Rain Light Rain
9:34 PM 51.8 °F 51.8 °F 100% 29.77 in 5.6 mi North 4.6 mph - N/A   Overcast
9:51 PM 51.8 °F 51.8 °F 100% 29.77 in 6.2 mi NNW 5.8 mph - N/A Rain Light Rain
9:58 PM 52.7 °F 52.7 °F 100% 29.78 in 6.2 mi NNW 6.9 mph - 0.01 in Rain Light Rain
9:59 PM 51.8 °F 51.8 °F 100% 29.77 in 6.2 mi NNW 5.8 mph - N/A Rain Light Rain
10:07 PM 51.8 °F 51.8 °F 100% 29.77 in 6.2 mi NNW 4.6 mph - N/A   Overcast
10:13 PM 51.8 °F 51.8 °F 100% 29.77 in 6.2 mi NNW 4.6 mph - N/A   Overcast
10:23 PM 51.8 °F 51.8 °F 100% 29.77 in 6.2 mi Variable 3.5 mph - N/A   Overcast
10:58 PM 52.7 °F 52.7 °F 100% 29.79 in 6.2 mi NW 4.6 mph - 0.01 in   Overcast
11:07 PM 53.6 °F 53.6 °F 100% 29.77 in 5.0 mi NW 5.8 mph - N/A   Overcast
11:58 PM 52.3 °F 52.3 °F 100% 29.80 in 5.6 mi WNW 8.1 mph - N/A   Overcast